Theta_e
353 353 352 352 353 355 357 358 358 357 355 353 351 349 346 345 346 345 345 348 351 352 351 350 350 345 350 351 348 347 345 345 346 342 343 345 346 344 344 344 344 342 342
355 353 354 353 355 356 357 359 360 351 355 355 353 351 349 344 345 345 346 349 349 349 349 348 352 351 350 352 346 347 346 345 345 343 344 345 347 347 344 344 344 343 343
356 354 354 355 355 357 359 360 361 352 349 356 355 354 351 346 345 347 350 351 351 352 347 353 352 353 352 352 351 351 350 348 345 344 344 346 346 344 345 346 345 345 343
356 356 354 355 356 356 359 360 362 361 352 350 356 355 353 348 347 350 351 351 350 352 353 352 351 349 352 352 352 350 348 347 349 347 348 347 348 349 344 346 346 345 344
353 356 356 354 355 357 357 361 362 362 361 352 353 356 355 349 351 353 352 351 353 352 354 355 353 352 354 351 352 354 351 350 349 350 350 348 347 347 348 344 346 345 344
348 353 356 355 355 356 358 359 362 363 362 355 351 350 354 352 350 353 352 353 352 354 353 354 353 351 351 352 355 353 350 350 349 348 348 347 347 348 349 347 346 348 346
348 351 354 355 356 356 358 358 362 364 364 361 353 351 348 348 349 352 354 354 352 352 352 352 351 354 350 350 350 352 349 349 350 349 349 348 348 346 346 344 342 345 346
348 349 352 354 356 356 358 359 361 363 365 363 355 351 351 351 350 352 354 355 354 352 351 354 357 356 352 353 351 348 348 349 347 349 348 346 343 346 345 345 343 347 344
348 348 351 353 354 356 357 359 360 363 364 364 363 357 352 352 357 355 356 356 356 354 353 355 357 358 357 355 351 353 353 351 350 353 349 348 346 345 345 346 345 344 346
347 348 350 352 354 355 356 358 359 361 364 364 364 362 356 351 351 355 354 357 358 356 355 356 357 357 356 355 354 354 353 352 353 353 351 349 347 346 347 347 348 346 345
341 349 349 349 351 351 351 355 359 359 362 362 362 362 361 359 352 353 354 353 359 358 356 352 356 357 356 356 354 353 351 353 352 353 353 352 352 348 348 349 349 345 345
340 347 348 345 347 346 346 350 354 356 358 360 361 361 361 359 360 352 356 355 354 358 355 353 351 352 357 356 355 354 355 354 346 349 352 349 351 350 348 348 347 346 346
343 344 348 345 347 347 347 348 353 354 353 357 358 359 360 360 360 361 360 361 359 354 359 357 354 354 358 358 356 354 355 355 352 351 350 353 351 349 350 350 350 350 351
344 348 347 349 349 351 349 351 353 354 351 352 354 357 359 360 361 361 362 361 361 358 360 362 360 358 359 358 358 357 357 355 353 351 354 353 354 352 351 351 350 351 349
340 342 347 351 352 355 356 356 355 355 355 353 355 356 360 361 362 362 361 362 362 362 362 361 362 362 363 362 361 357 354 354 353 354 352 351 350 349 348 350 352 348 349
340 341 343 347 352 352 354 362 362 360 360 358 358 360 360 363 363 363 360 359 362 364 363 362 361 361 362 360 357 356 355 355 353 352 351 355 350 344 343 343 343 343 343
339 340 341 344 348 353 352 352 362 364 362 350 357 361 362 360 361 361 357 355 357 363 364 363 361 360 359 358 358 355 356 355 353 350 351 351 351 348 347 347 343 341 340
338 338 339 340 344 347 353 354 352 357 362 365 354 357 360 357 359 359 356 354 348 359 362 361 362 360 358 359 356 352 350 355 355 355 353 352 352 353 352 350 350 348 346
337 338 338 338 342 346 351 356 353 356 361 367 362 354 355 351 363 367 357 361 351 360 361 361 359 360 359 359 352 348 348 350 354 352 353 353 353 351 352 351 350 350 348
335 336 338 338 339 344 348 355 354 357 361 366 367 360 354 353 358 368 366 363 364 363 360 362 361 360 358 357 350 345 350 354 352 351 351 352 349 353 352 348 350 347 348
337 338 338 337 338 343 347 354 358 356 362 367 370 369 361 355 355 366 365 363 361 362 360 360 360 358 354 356 351 347 346 352 352 353 352 354 354 349 347 346 344 346 348
338 339 339 339 339 343 348 353 360 357 357 356 357 367 360 359 371 364 363 363 361 363 360 362 360 361 358 356 354 351 351 350 353 353 352 351 350 350 349 346 344 344 343
338 339 340 341 342 344 347 354 359 362 359 362 362 364 365 366 368 365 362 362 359 358 359 361 361 360 360 356 354 353 353 353 353 352 351 350 347 346 344 343 344 345 344
339 338 338 340 343 346 349 353 357 364 362 363 364 366 366 369 368 363 359 355 346 355 356 357 356 356 356 357 355 353 351 351 351 350 350 350 350 348 347 345 344 345 344
339 337 338 340 342 345 347 351 358 363 365 363 365 367 368 366 363 358 354 346 337 344 355 355 355 357 354 356 353 349 350 350 349 348 348 348 349 348 348 346 346 347 346
339 338 338 340 341 345 345 354 354 361 366 363 365 366 359 361 355 350 346 340 335 343 350 353 351 349 349 350 349 341 339 340 343 345 346 345 345 346 345 344 344 343 343
Wind_Speed
25 27 27 26 25 24 22 22 22 23 21 20 19 17 16 14 14 13 15 15 14 14 12 8 10 9 10 10 10 9 11 11 9 7 8 10 11 10 12 17 18 23 23
27 29 30 30 29 27 25 24 23 24 23 20 19 17 16 15 14 14 16 17 15 15 13 12 10 10 10 12 10 10 9 8 11 8 6 6 5 12 12 17 18 19 21
29 31 31 31 30 29 28 26 25 25 23 21 19 16 15 16 16 16 16 17 18 17 15 14 14 13 13 13 12 10 10 9 9 9 10 4 4 3 4 14 18 18 21
27 30 33 33 32 31 28 27 26 25 24 25 20 22 18 17 17 16 16 17 20 19 18 17 17 16 14 16 15 13 13 13 10 10 12 11 9 4 2 6 8 12 16
26 31 33 33 32 30 30 28 27 27 25 25 24 22 20 17 14 14 17 19 18 18 18 18 18 18 16 16 16 14 15 13 14 12 10 11 11 10 10 9 9 13 14
18 26 29 30 29 29 29 28 28 29 28 28 27 28 23 21 17 16 16 17 17 18 20 20 20 18 17 17 17 20 19 17 15 16 14 14 12 9 11 11 11 14 14
12 24 28 29 28 30 29 28 28 29 28 27 28 30 28 25 24 19 19 17 17 17 21 20 21 19 20 20 19 20 19 17 17 16 17 14 16 15 14 16 15 15 11
8 18 26 27 28 28 29 28 28 28 28 28 28 28 29 27 25 23 20 18 19 17 17 17 16 18 21 19 19 20 20 20 19 20 17 20 18 21 23 19 16 12 13
6 14 22 25 27 26 28 29 27 27 27 27 26 27 29 30 24 23 22 22 20 17 19 20 20 19 19 18 19 17 18 18 18 17 19 20 21 19 21 21 19 17 11
3 12 19 22 23 24 24 25 27 27 26 25 25 25 26 28 29 27 26 23 21 22 20 20 20 19 18 18 20 17 20 18 18 18 23 20 20 17 16 20 18 18 18
5 8 16 19 21 21 22 25 26 26 25 25 25 24 24 24 26 26 27 26 22 21 23 25 23 19 18 19 19 21 20 18 16 19 20 18 17 18 14 15 15 18 18
5 5 14 19 21 22 23 25 26 26 25 25 26 24 23 23 23 23 23 23 23 23 25 25 24 22 19 16 18 19 18 19 17 16 17 17 14 13 13 12 15 16 16
10 3 12 17 20 20 21 22 25 24 23 23 24 24 24 24 24 23 22 22 23 24 21 22 23 22 21 20 18 18 18 19 19 16 15 12 13 12 9 10 9 8 9
14 13 11 13 22 19 20 22 22 23 23 23 24 25 25 25 23 23 22 21 23 23 22 22 22 21 21 20 18 17 17 18 16 13 12 12 11 12 10 10 9 11 11
13 14 12 14 11 7 18 20 23 23 24 26 26 27 26 24 23 23 23 21 22 21 20 20 21 20 19 21 19 17 15 15 13 12 11 11 12 12 12 9 12 11 8
10 11 11 10 9 8 10 18 22 24 25 30 29 26 28 25 27 25 23 21 21 19 18 19 19 20 17 16 18 15 12 13 12 11 10 12 13 13 13 14 14 15 16
10 11 11 10 10 10 10 14 21 25 30 30 35 32 31 30 29 27 24 22 21 19 20 19 19 18 16 18 21 17 13 12 12 13 12 12 11 14 13 13 14 16 17
11 12 12 13 14 14 14 14 14 23 28 30 35 36 34 30 28 27 25 23 22 21 20 18 17 16 15 17 19 17 16 14 14 12 13 12 13 12 14 11 16 15 13
14 14 15 17 18 17 16 15 14 19 27 31 36 38 36 32 28 26 26 24 24 22 20 18 18 18 14 17 15 16 17 17 17 15 15 13 13 12 18 18 15 16 16
18 19 19 18 18 16 17 16 15 16 27 34 35 37 34 31 31 26 24 22 20 20 18 16 15 17 14 15 14 14 13 13 13 15 18 19 20 18 21 22 18 19 16
22 22 22 20 19 17 17 17 16 18 22 25 24 31 34 31 32 26 23 22 22 20 20 18 17 15 14 15 12 14 14 14 15 16 18 16 17 17 19 21 21 21 16
19 19 19 19 19 18 17 18 16 17 19 25 27 26 27 24 25 26 24 22 21 21 19 18 15 13 14 14 15 14 14 14 17 16 17 18 20 19 20 22 23 24 23
18 20 20 20 19 19 18 19 17 15 20 21 26 27 24 25 27 25 20 18 18 18 17 15 13 12 12 11 13 13 13 15 18 19 21 20 20 20 20 22 23 23 24
21 22 24 22 20 21 20 19 20 16 18 25 30 29 30 31 32 32 28 19 14 20 17 14 11 9 8 7 9 9 10 13 14 15 18 22 22 22 21 21 22 23 24
23 23 25 25 23 22 22 20 23 17 21 22 27 32 41 46 44 38 34 16 24 32 10 9 8 7 6 11 13 10 12 12 14 15 15 15 14 14 13 14 13 15 15
25 27 27 27 27 23 26 20 23 20 22 27 31 33 33 36 33 30 25 13 22 30 28 16 12 12 16 16 16 12 10 9 6 5 7 7 8 8 8 11 13 15 16
Wind_Direction
197 195 194 194 195 197 197 196 193 193 193 198 205 207 209 212 213 214 214 216 201 204 210 196 230 232 215 232 252 249 259 244 239 291 299 289 257 240 231 224 227 222 222
199 199 197 197 198 199 198 197 199 203 195 200 204 210 213 214 217 217 224 215 212 210 211 198 220 226 224 217 248 233 230 239 243 257 269 283 260 237 238 229 233 229 226
204 202 200 200 201 201 200 200 200 207 202 193 201 207 208 210 217 216 221 227 213 214 211 222 212 219 229 253 244 242 234 236 252 257 233 237 215 187 238 244 240 236 228
207 205 205 204 204 205 205 204 202 204 215 206 204 206 206 211 214 219 220 223 228 218 222 230 235 238 233 235 258 265 265 246 246 250 252 244 247 231 211 240 241 250 232
199 205 206 207 208 206 207 206 206 206 210 220 203 214 209 216 217 218 220 225 233 231 225 233 246 243 243 244 238 254 264 246 244 237 243 251 255 243 239 249 240 234 233
205 200 204 205 206 206 206 206 207 211 209 222 216 217 219 207 214 217 217 221 224 233 236 230 242 245 245 245 242 251 248 251 250 255 252 245 246 247 245 250 260 256 225
199 193 197 201 202 202 203 203 204 207 209 214 222 222 224 229 211 211 222 218 227 230 236 246 243 242 254 251 249 256 260 256 257 258 264 266 264 250 257 270 274 269 272
199 194 194 198 200 200 202 202 204 206 208 211 221 222 226 228 230 226 220 231 229 232 232 244 245 247 243 251 259 254 259 260 265 266 264 262 299 258 262 248 263 273 271
173 190 190 194 198 200 202 203 203 205 207 211 216 223 224 226 223 221 234 223 225 231 237 235 236 244 248 250 252 250 258 259 261 263 262 272 276 288 256 245 250 251 253
215 187 187 191 195 199 202 204 206 208 206 207 213 217 221 227 227 229 228 224 229 230 220 239 235 243 249 247 248 248 259 259 260 258 269 271 271 280 263 249 236 248 253
334 191 187 189 192 195 198 202 204 206 208 207 211 213 218 221 225 226 232 233 228 226 237 231 241 246 251 250 249 249 257 257 264 263 265 273 271 276 266 245 244 250 254
358 240 192 190 192 195 196 197 199 203 209 208 206 212 215 218 220 225 228 231 235 232 237 242 244 244 243 249 247 250 246 255 260 272 269 274 271 271 263 253 245 257 263
13 300 210 195 197 199 200 198 201 202 208 211 210 208 212 215 216 223 224 228 232 234 228 237 237 240 240 241 246 253 249 252 262 266 263 260 252 252 246 250 259 273 269
32 22 340 338 179 207 209 208 208 207 207 213 215 216 214 219 221 221 223 220 230 231 226 227 240 238 238 244 249 246 247 251 258 253 248 245 241 241 242 245 251 246 260
35 30 10 349 343 222 215 218 215 217 210 212 216 220 221 219 221 224 222 221 220 232 226 228 231 244 234 238 240 250 244 244 245 249 246 246 240 240 232 227 252 264 277
18 11 11 4 346 316 259 232 227 218 219 211 214 216 224 217 218 219 227 223 216 218 223 219 229 229 228 239 246 243 238 237 240 242 243 228 255 251 250 250 251 255 263
358 351 347 349 342 324 285 252 237 224 219 222 214 212 220 221 218 222 224 219 215 209 214 212 221 229 227 228 243 246 234 250 246 236 229 239 240 274 279 263 262 263 267
331 331 326 322 321 322 311 270 246 246 225 221 218 217 220 221 216 219 221 215 211 204 206 209 210 224 234 227 237 238 227 223 237 234 244 231 237 238 254 249 263 275 288
319 316 314 312 310 315 317 298 260 237 229 220 222 222 221 221 212 211 217 215 208 197 200 202 208 211 216 244 246 235 232 221 233 246 243 242 252 245 251 248 248 260 265
310 308 304 304 303 301 306 305 273 247 229 220 218 219 219 221 212 209 213 209 210 199 192 199 212 216 210 241 244 236 225 237 250 256 255 254 235 235 252 255 251 255 255
305 302 295 292 292 292 296 299 284 257 240 224 220 220 215 215 215 204 207 209 204 211 190 201 206 218 216 227 239 237 235 227 243 248 250 254 264 261 254 260 260 260 250
308 308 303 294 286 285 286 287 283 261 251 239 241 215 214 204 201 200 200 202 205 207 209 200 200 218 223 220 234 238 242 239 243 252 251 257 259 260 261 260 262 261 261
306 310 307 301 289 284 281 278 276 258 238 234 228 211 208 194 201 187 185 198 212 209 219 208 209 213 217 230 241 242 242 242 250 260 264 265 267 266 266 269 267 266 263
299 305 304 300 292 285 281 275 271 257 236 227 222 206 189 177 176 175 172 175 344 269 222 209 216 217 221 214 235 240 239 242 247 258 267 267 268 268 267 267 271 266 262
294 298 297 294 288 282 279 271 268 246 227 212 205 195 190 187 182 180 184 180 358 325 225 208 199 195 222 204 234 246 251 249 252 258 262 270 265 261 257 263 260 263 261
291 291 291 287 284 277 273 272 261 227 221 203 197 186 183 179 181 180 189 257 278 265 247 225 218 222 232 244 256 268 267 274 279 272 272 287 276 266 273 268 268 264 265